AO-07 1 07530U 74089B 17033.46160800 -.00000029 00000-0 96083-4 0 9994 2 07530 101.6118 4.9042 0011765 223.0380 250.6771 12.53625297931971 UO-11 1 14781U 84021B 17032.46969167 .00000128 00000-0 22087-4 0 9991 2 14781 97.7178 83.0411 0007111 287.0899 72.9536 14.82853517770237 LO-19 1 20442U 90005G 17031.76467358 .00000026 00000-0 25697-4 0 9995 2 20442 98.5653 329.7476 0011553 185.4570 174.6490 14.32847104412083 HUBBLE 1 20580U 90037B 17031.88955005 .00000643 00000-0 28839-4 0 9993 2 20580 028.4687 188.0757 0002819 144.0293 352.6307 15.08659227269683 MET-2/21 1 22782U 93055A 17033.38994880 .00000041 00000-0 23467-4 0 9997 2 22782 82.5511 130.5673 0023770 89.7267 338.8783 13.83798640183054 AO-27 1 22825U 93061C 17032.87036795 .00000021 00000-0 25752-4 0 9994 2 22825 98.7938 356.9264 0008672 13.9327 346.2093 14.29984558218067 IO-26 1 22826U 93061D 17033.14229622 .00000025 00000-0 27025-4 0 9998 2 22826 98.7882 357.2987 0009013 3.6878 356.4369 14.30312059218274 FO-29 1 24278U 96046B 17033.65765401 -.00000037 00000-0 12173-5 0 9996 2 24278 98.5818 294.6849 0349938 326.0271 31.8895 13.53074864 10683 NOAA-15 1 25338U 98030A 17031.93236472 .00000018 00000-0 26595-4 0 9999 2 25338 098.7847 042.5529 0009712 239.6219 120.4001 14.25775565973323 GO-32 1 25397U 98043D 17032.82910230 .00000005 00000-0 21259-4 0 9996 2 25397 98.5961 338.1242 0002155 58.7806 301.3584 14.23614017964536 ISS 1 25544U 98067A 17031.71635417 .00004619 00000-0 76708-4 0 9998 2 25544 051.6440 358.6380 0007775 139.7517 221.4581 15.54224457040538 NO-44 1 26931U 01043C 17031.90608125 -.00000014 00000-0 26623-4 0 9991 2 26931 067.0511 082.8173 0006862 281.4183 078.6148 14.30445078800784 SO-50 1 27607U 02058C 17033.44762949 .00000125 00000-0 38722-4 0 9990 2 27607 64.5548 177.2873 0040146 156.5242 203.7705 14.75278277759231 CO-55 1 27844U 03031E 17033.26183706 .00000061 00000-0 47543-4 0 9993 2 27844 98.6917 44.2214 0010115 23.6719 336.4922 14.22012127705148 CO-57 1 27848U 03031J 17031.95834082 .00000035 00000-0 35813-4 0 9999 2 27848 098.7011 043.1363 0010213 035.9649 324.2214 14.21629913704816 RS-22 1 27939U 03042A 17033.42672101 .00000142 00000-0 33954-4 0 9991 2 27939 97.9169 182.6841 0011772 296.3927 136.2651 14.66516661713567 NOAA-18 1 28654U 05018A 17031.89245832 .00000006 00000-0 28382-4 0 9995 2 28654 099.1920 050.7106 0015242 094.1464 266.1449 14.12323432602924 CO-58 1 28895U 05043F 17031.42038304 .00000216 00000-0 50454-4 0 9991 2 28895 097.8473 200.1454 0016202 212.7253 147.2948 14.63335007600486 CO-65 1 32785U 08021C 17033.80368740 .00000321 00000-0 40871-4 0 9996 2 32785 97.5799 64.1259 0011753 251.4369 108.5572 14.87787678474913 AAUSAT2 1 32788U 08021F 17031.64861697 .00001006 00000-0 10032-3 0 9994 2 32788 097.5763 072.6690 0011112 221.6861 138.3513 14.93661969475193 DO-64 1 32789U 08021G 17031.69169457 .00001888 00000-0 13953-3 0 9998 2 32789 097.5788 092.7186 0012601 198.5172 161.5597 15.04347783476240 CO-66 1 32791U 08021J 17033.14042209 .00000401 00000-0 46946-4 0 9997 2 32791 97.5787 67.4283 0012251 238.6631 121.3388 14.90077789475034 RS-30 1 32953U 08025A 17033.87357310 .00000023 00000-0 97226-4 0 9990 2 32953 82.5065 323.1858 0017963 217.3981 142.5849 12.43074672394732 PRISM 1 33493U 09002B 17033.68318592 .00001469 00000-0 13833-3 0 9990 2 33493 98.1870 270.2997 0015603 161.2162 198.9632 14.95444640435671 NOAA-19 1 33591U 09005A 17031.87835781 .00000105 00000-0 82174-4 0 9996 2 33591 099.0743 356.9047 0013169 297.9793 062.0044 14.12149132411151 TISAT-1 1 36799U 10035E 17033.32402699 .00000697 00000-0 77908-4 0 9999 2 36799 98.0461 153.4828 0013465 54.4661 305.7810 14.90211018355699 JUGNU 1 37839U 11058B 17033.57641441 .00000322 00000-0 29754-4 0 9999 2 37839 19.9599 186.6770 0018953 139.4682 286.7038 14.12570168274640 SRMSAT 1 37841U 11058D 17033.80217135 .00000301 00000-0 20343-4 0 9999 2 37841 19.9705 224.2295 0011845 45.2972 28.0946 14.10563347274286 AO-71 1 37854U 11061E 17032.39012942 .00003357 00000-0 18745-3 0 9995 2 37854 101.7069 196.9146 0169090 116.7174 245.1455 15.03563358286529 HRBE 1 37855U 11061F 17032.77195165 .00002813 00000-0 15531-3 0 9993 2 37855 101.7195 195.3889 0182648 121.2569 240.6676 15.02512272286455 ALMASAT-1 1 38078U 12006B 17031.97093901 .00024994 36033-5 30687-3 0 9990 2 38078 069.4438 137.1965 0333540 131.1233 231.9254 15.15576071264103 HORYU-2 1 38340U 12025D 17033.05016787 .00000310 00000-0 54000-4 0 9993 2 38340 98.3726 32.2458 0011818 7.9454 352.1939 14.75242120253366 RS-40 1 38735U 12041C 17033.74611559 .00000003 00000-0 -47614-4 0 9996 2 38735 82.4729 48.0140 0016034 324.5142 35.4870 12.42573526204990 BEESAT-3 1 39134U 13015E 17033.77837422 .00002632 00000-0 14053-3 0 9993 2 39134 64.8709 300.0906 0026251 305.4392 54.4283 15.17224790209089 BEESAT-2 1 39136U 13015G 17032.84101814 .00001898 00000-0 11194-3 0 9997 2 39136 64.8713 311.9834 0025745 300.4827 59.3755 15.14622140208773 ZACUBE-1 1 39417U 13066B 17033.13764131 .00000312 00000-0 46183-4 0 9992 2 39417 97.6492 81.7975 0059154 353.0417 6.9968 14.80609920172790 TRITON-1 1 39427U 13066M 17031.95010236 .00000249 00000-0 47683-4 0 9996 2 39427 097.6471 056.3809 0115792 065.4806 295.8420 14.67368976170876 GOMX-1 1 39430U 13066Q 17033.59967018 .00000260 00000-0 55805-4 0 9999 2 39430 97.6634 42.9225 0153453 107.9416 253.8581 14.58777393170317 LO-74 1 39440U 13066AA 17033.14856090 .00000284 00000-0 46921-4 0 9993 2 39440 97.6456 72.0681 0081273 19.4354 340.9924 14.75356952172187 AO-73 1 39444U 13066AE 17032.71018545 .00000377 00000-0 53590-4 0 9997 2 39444 97.6507 82.2726 0058278 351.6973 8.3270 14.81320867171550 SPROUT 1 39770U 14029E 17033.76994896 .00000872 00000-0 10601-3 0 9992 2 39770 97.8713 134.5276 0010300 54.3477 305.8695 14.85957367146175 DUCHIFAT-1 1 40021U 14033M 17033.16386590 .00000740 00000-0 83128-4 0 9997 2 40021 97.9243 306.1063 0013981 31.0452 329.1589 14.89704751142492 NANOSATCBR1 1 40024U 14033Q 17033.71073027 .00000572 00000-0 66664-4 0 9998 2 40024 97.9209 305.7447 0013186 30.3024 329.8953 14.89057108142536 EO-79 1 40025U 14033R 17033.68692479 .00000469 00000-0 56806-4 0 9995 2 40025 97.9197 304.9532 0013437 32.6183 327.5861 14.88291427142489 DTUSAT-2 1 40030U 14033W 17033.65825053 .00000434 00000-0 53450-4 0 9998 2 40030 97.9167 304.1709 0012743 27.6089 332.5802 14.87917481142450 EO-80 1 40032U 14033Y 17033.42553787 .00000493 00000-0 59971-4 0 9996 2 40032 97.9175 303.9463 0012725 28.6098 331.5814 14.87851601142404 ANTELSAT 1 40034U 14033AA 17033.63825710 .00000347 00000-0 59665-4 0 9997 2 40034 97.8776 281.5922 0059449 6.8619 353.3390 14.73599129141111 VELOX-1 1 40057U 14034E 17033.15065997 .00000417 00000-0 66697-4 0 9994 2 40057 98.1878 131.3873 0012214 128.3476 231.8835 14.76988208139822 DAURIA DX 1 1 40071U 14037C 17033.34265110 .00000175 00000-0 30073-4 0 9993 2 40071 98.3299 139.1515 0009527 121.2676 238.9474 14.80953435139010 UKUBE-1 1 40074U 14037F 17033.32164745 .00000432 00000-0 59873-4 0 9991 2 40074 98.3371 142.3024 0005692 119.8981 240.2820 14.83362228139182 HODOYOSHI-1 1 40299U 14070B 17033.41660948 .00001102 00000-0 51303-4 0 9998 2 40299 97.4134 118.1756 0012588 198.9062 214.2258 15.21960233124443 CHUBUSAT-1 1 40300U 14070C 17033.45421501 .00001207 00000-0 58089-4 0 9999 2 40300 97.4071 115.7782 0019849 209.5399 206.7494 15.20530330124311 QSAT-EOS 1 40301U 14070D 17033.76411219 .00002459 00000-0 10814-3 0 9992 2 40301 97.4011 115.8070 0027325 206.9365 269.2244 15.22505788124373 FIREBIRD FU3 1 40377U 15003B 17033.13599263 .00003552 00000-0 15572-3 0 9990 2 40377 99.1098 190.3371 0139543 89.6193 272.1022 15.14503202110566 FIREBIRD FU4 1 40378U 15003C 17033.72469408 .00003911 00000-0 17071-3 0 9998 2 40378 99.1101 191.0689 0139712 87.6028 274.1186 15.14528797110654 GRIFEX 1 40379U 15003D 17033.70042931 .00003288 00000-0 15169-3 0 9998 2 40379 99.1107 189.3736 0144998 93.6036 268.1785 15.12295795110556 NO-84 1 40654U 15025D 17033.46454847 .00008224 00000-0 16804-3 0 03530 2 40654 054.9991 117.5821 0187203 287.8559 070.2193 15.30574820059245 NO-83 1 40655U 15025E 17033.41143729 .00014634 00000-0 25180-3 0 03911 2 40655 054.9855 101.5117 0160909 296.8513 061.6283 15.38253853059444 DEORBITSAIL 1 40719U 15032E 17033.75627193 .00000559 00000-0 88793-4 0 9994 2 40719 97.9955 289.0869 0015662 212.5614 147.4630 14.75893475 84493 NUDT-PHONESAT 1 40900U 15049B 17033.78597727 .00003684 00000-0 18126-3 0 9990 2 40900 97.4451 43.6886 0013737 341.1271 18.9452 15.18553707 76059 XW-2A 1 40903U 15049E 17033.41016631 .00003692 00000-0 10076-3 0 9998 2 40903 97.4334 57.4326 0016214 35.7295 324.5031 15.37966301 76923 XW-2C 1 40906U 15049H 17033.77764312 .00001149 00000-0 66361-4 0 9990 2 40906 97.4548 41.9862 0014415 325.3617 34.6675 15.14232157 75891 XW-2D 1 40907U 15049J 17033.76931035 .00001230 00000-0 70618-4 0 9999 2 40907 97.4516 41.7768 0013739 323.7875 36.2426 15.14315143 75895 LILACSAT-2 1 40908U 15049K 17033.76965768 .00000699 00000-0 43254-4 0 9994 2 40908 97.4617 41.6687 0015165 319.9912 40.0201 15.12933428 75840 XW-2F 1 40910U 15049M 17033.84343325 .00001764 00000-0 97687-4 0 9998 2 40910 97.4541 42.3287 0014590 321.2752 38.7433 15.15054851 75817 XW-2B 1 40911U 15049N 17032.97942188 .00001178 00000-0 67830-4 0 9990 2 40911 97.4561 41.3086 0013714 327.0240 33.0135 15.14282484 75674 DCBB 1 40912U 15049P 17033.29968105 .00001892 00000-0 98639-4 0 9998 2 40912 97.4514 43.2447 0015065 316.8964 164.8585 15.17098774 75835 TW-1C 1 40926U 15051B 17033.83295341 .00007609 00000-0 18962-3 0 9993 2 40926 97.2474 74.5116 0010837 301.2748 144.5494 15.40453605 76225 TW-1A 1 40928U 15051D 17033.89267361 .00004159 00000-0 12476-3 0 9993 2 40928 97.2419 72.0899 0010985 321.8953 24.9242 15.34964038 76083 IO-86 1 40931U 15052B 17032.74481220 .00000652 00000-0 18872-5 0 9995 2 40931 6.0002 118.4282 0012954 126.1388 233.9891 14.76508140 72913 GomX-3 1 40949U 98067HA 16292.18357804 .08527750 12374-4 77882-3 0 9992 2 40949 51.6055 106.7696 0006699 286.1344 73.8944 16.38002265 59645 LQSat 1 40958U 15057A 17033.74313036 .00000068 00000-0 18319-4 0 9995 2 40958 97.9916 111.3306 0019110 133.6874 226.5913 14.72940446 71320 AO-85 1 40967U 15058D 17033.14379493 .00000255 00000-0 48481-4 0 03882 2 40967 064.7773 268.4707 0176969 127.7942 233.9342 14.75303234057196 ATHENOXAT-1 1 41168U 15077C 17033.23169525 .00002887 00000-0 12845-3 0 9995 2 41168 14.9872 74.9560 0012230 307.6298 121.5738 15.11049365 62591 ChubuSat-2 1 41338U 16012B 17031.90760961 .00000484 00000-0 31489-4 0 9994 2 41338 031.0027 257.7147 0013883 151.2928 208.8473 14.99632019052517 ChubuSat-3 1 41339U 16012C 17033.78482045 .00000479 00000-0 30871-4 0 9995 2 41339 31.0120 245.1607 0013562 176.0903 183.9845 14.99847426 52770 Horyu-4 1 41340U 16012D 17032.81561772 .00000757 00000-0 51958-4 0 9993 2 41340 31.0044 249.6674 0014256 173.8384 186.2429 15.00418421 52663 OUFTI-1 1 41458U 16025C 17031.88504171 .00002909 00000-0 16090-3 0 9991 2 41458 098.1992 061.5994 0176242 025.1446 335.8232 15.02473512042114 e-st@r-II 1 41459U 16025D 17031.96045788 .00002969 00000-0 16419-3 0 9996 2 41459 098.1983 061.6558 0177009 024.8487 336.1132 15.02359948042114 AAUSAT4 1 41460U 16025E 17033.35870193 .00003923 00000-0 21649-3 0 9991 2 41460 98.1924 63.1812 0170433 19.2556 341.5006 15.03014062 42330 MinXSS 1 41474U 98067HU 17033.44390372 .00110373 00000-0 68617-3 0 9992 2 41474 51.6448 331.1871 0000337 124.1291 235.9741 15.76136089 40996 CADRE 1 41475U 98067HV 17003.74787607 .12518598 12537-4 55989-3 0 9998 2 41475 51.6110 110.0165 0004040 312.3134 47.7551 16.43344525 36494 NODES 1 1 41477U 98067HX 17033.11007027 .00042021 00000-0 36439-3 0 9992 2 41477 51.6369 337.8922 0000280 285.2353 74.8613 15.68688115 40784 NODES 2 1 41478U 98067HY 17033.37881666 .00043212 00000-0 37702-3 0 9997 2 41478 51.6367 336.6850 0000282 277.3842 82.7122 15.68525799 40823 LO-87 1 41557U 16033B 17033.46081318 .00002747 00000-0 10779-3 0 9997 2 41557 97.4749 112.9586 0015974 120.0843 240.1981 15.26490487 37876 NuSat2 1 41558U 16033C 17033.74510253 .00002473 00000-0 97699-4 0 9997 2 41558 97.4776 113.2742 0015492 117.8003 242.4808 15.26365676 37911 Lapan A3 1 41603U 16040E 17033.81317351 .00000413 00000-0 22829-4 0 9993 2 41603 97.4806 97.2696 0013226 176.5268 248.0276 15.19254172 34258 Swayam 1 41607U 16040J 17033.15156436 .00002643 00000-0 12512-3 0 9993 2 41607 97.4789 96.6863 0014613 182.2112 177.9061 15.20149631 34082 Pratham 1 41783U 16059A 17032.72525460 .00000086 00000-0 26229-4 0 9997 2 41783 98.1866 95.3734 0032859 223.8540 136.0053 14.62801475 18796 AlSat 1N 1 41789U 16059G 17033.78222609 .00000103 00000-0 28927-4 0 9996 2 41789 98.1860 96.6659 0027695 214.9257 145.0120 14.64003604 18946 ScatSat 1 41790U 16059H 17033.15872814 .00000028 00000-0 17990-4 0 9992 2 41790 98.0855 88.7841 0011024 196.4958 163.5880 14.50091966 18690 TY-1 1 41844U 16066D 17033.75032377 -.00000070 00000-0 00000 0 0 9995 2 41844 97.4058 42.9738 0014768 358.1206 87.2704 15.21644953 12898 CAS-2T 1 41845U 16066E 17033.66083162 -.00000077 00000-0 00000 0 0 9991 2 41845 98.7796 46.0456 0366020 287.5630 68.5896 14.37694301 12163 Pegasus-1 1 41846U 16066F 17033.85054136 -.00000077 00000-0 00000 0 0 9992 2 41846 98.7845 46.1551 0368823 287.6158 68.5176 14.36866631 12184 STARS-C 1 41895U 98067KR 17033.81073228 .00019222 00000-0 28086-3 0 9995 2 41895 51.6416 347.8760 0005608 163.7225 196.4026 15.55642321 7034 BY70-1 1 41909U 16083C 17033.84344973 .00720647 24159-5 85386-3 0 9992 2 41909 97.5739 114.8518 0143198 227.6712 131.2355 15.91316718 5777 OBJECT 41930 1 41930U 98067KS 17033.76290493 .02708028 00000-0 85133-2 0 9990 2 41930 51.6380 346.8039 0017172 167.0652 193.1233 15.90353990 2615 Tancredo 1 1 41931U 98067KT 17031.89714990 .00029372 00000-0 42147-3 0 9991 2 41931 051.6434 357.5956 0010478 120.2781 239.9205 15.55822541002307 ITF-2 1 41932U 98067KU 17033.82892004 .00013718 00000-0 20581-3 0 9995 2 41932 51.6453 347.9995 0008121 127.0395 233.1416 15.55193860 2601 EGG 1 41933U 98067KV 17033.82899547 .00016512 00000-0 24601-3 0 9997 2 41933 51.6420 347.9986 0007411 128.5765 231.5889 15.55218646 2600 OBJECT 41934 1 41934U 98067KW 17033.44445285 .00010917 00000-0 16620-3 0 9997 2 41934 51.6427 349.9344 0009803 131.5795 228.6036 15.55028857 2639 AOBA-V3LOX3 1 41935U 98067KX 17033.82975687 .00016064 00000-0 24020-3 0 9996 2 41935 51.6432 348.0064 0007314 127.8074 232.3579 15.55144956 2709 TuPOD 1 41936U 98067KY 17033.82568128 .00042627 00000-0 60665-3 0 9994 2 41936 51.6428 347.9790 0009070 126.9189 233.2745 15.55875872 2081 OSNSAT 1 41939U 98067KZ 17033.76109855 .00025156 00000-0 36385-3 0 9998 2 41939 51.6441 348.2960 0010034 128.7260 231.4725 15.55701259 1943 /EX
